Location: Denkingen
(47.8945°N, 9.3087°E)
Time: 07:38:53
(UTC+00:00)

Daily predictions for brighter satellites

Satellite Brightness Start Highest point End
(mag) Time Altitude Azimuth Time Altitude Azimuth Time Altitude Azimuth
Spot 2 Rocket 4.1 19:24:07 10° SE 19:28:48 41° ENE 19:33:30 10° N
SL-16 R/B 3.0 19:23:42 10° NNW 19:29:01 39° NE 19:34:19 10° ESE
Cosmos 1607 4.0 19:22:56 10° SW 19:29:06 86° SE 19:35:25 10° NE
ERS-1 Rocket 3.0 19:26:49 10° SSE 19:31:50 87° ENE 19:36:53 10° NNW
Meteor 1-27 4.2 19:27:55 10° S 19:33:32 76° E 19:39:08 10° NNE
IRAS Rocket 4.5 19:29:05 10° S 19:34:32 73° WSW 19:40:04 10° NNW
MetOp-B 4.2 19:33:59 10° SSE 19:39:20 86° ENE 19:44:44 10° NNW
Cosmos 1459 Rocket 4.5 19:35:11 10° SSW 19:41:20 66° W 19:47:26 10° N
Cosmos 2061 Rocket 4.2 19:36:46 10° SSE 19:42:48 55° E 19:48:56 10° NNE
Cosmos 1980 Rocket 3.2 19:37:53 10° NW 19:43:17 45° WSW 19:48:37 10° S
CZ-4 R/B 2.3 19:40:48 10° S 19:44:14 41° W 19:47:43 10° NNW
USA 186 2.5 19:42:50 11° SE 19:45:10 29° ENE 19:47:37 10° N
Cosmos 2228 2.8 19:41:20 10° S 19:45:26 73° E 19:49:32 10° NNE
COSMOS 2406 3.5 19:40:33 10° S 19:46:00 47° ESE 19:51:29 10° NE
Cosmos 1933 4.5 19:45:06 10° SE 19:48:08 23° E 19:51:11 10° NE
Cosmos 2084 Rocket 4.2 19:44:08 10° NW 19:48:09 45° SW 19:52:12 10° SSE
SL-08 R/B 3.4 19:43:36 10° NNE 19:48:21 58° E 19:52:59 10° S
ISS -2.6 19:46:22 10° W 19:49:36 45° N 19:52:51 10° ENE
Cosmos 1743 3.3 19:46:49 10° NNW 19:49:41 40° W 19:52:32 10° SSW
Cosmos 1461 3.0 19:46:32 10° S 19:50:00 39° ESE 19:53:27 10° NE
Cosmos 1455 Rocket 3.5 19:45:51 10° SSW 19:50:12 65° W 19:54:35 10° N
Cosmos 1992 Rocket 4.0 19:45:11 10° S 19:50:18 64° ESE 19:55:28 10° NNE
Cosmos 1802 Rocket 4.3 19:44:59 10° SSW 19:51:09 74° W 19:57:18 10° N
Cosmos 1892 Rocket 4.2 19:47:41 10° NNW 19:51:55 55° W 19:56:06 10° S
SKYMED 3 4.3 19:48:14 10° NNE 19:52:13 77° ESE 19:56:11 10° S
Terra 2.1 19:47:36 10° S 19:52:17 70° WSW 19:56:59 10° NNW
Okean O Rocket 1.6 19:52:39 10° SSE 19:56:53 64° ENE 20:01:09 10° N
Cosmos 2333 Rocket 2.5 19:53:50 10° NNW 19:59:28 56° ENE 20:04:29 13° SE
Cosmos 1544 Rocket 3.8 19:59:49 10° SSE 20:03:59 48° E 20:08:09 10° NNE
NOSS 3-3 (A) 3.8 19:58:49 10° SW 20:03:59 84° NW 20:10:15 10° NE
Cosmos 1437 Rocket 3.0 20:03:17 11° SSE 20:06:27 39° E 20:09:50 10° NNE
Cosmos 2360 Rocket 3.0 20:04:03 10° NNW 20:09:26 41° NE 20:13:59 14° ESE
Helios 1A Rocket 3.6 20:06:39 10° N 20:09:38 40° WNW 20:12:36 10° SW
CZ-4B R/B 3.9 20:07:06 10° S 20:12:38 55° W 20:18:09 10° NNW
Cosmos 2233 Rocket 4.2 20:08:32 10° SSW 20:14:43 77° W 20:20:54 10° N
Okean-O 2.7 20:14:53 11° S 20:19:02 79° WSW 20:23:27 10° NNW
Cosmos 1486 Rocket 4.4 20:14:55 10° NNW 20:20:04 52° ENE 20:23:55 18° SE
Cosmos 909 Rocket 4.2 20:14:54 10° SW 20:21:13 78° NW 20:27:46 10° NE
Cosmos 1758 Rocket 3.6 20:17:35 10° N 20:22:01 90° WSW 20:25:51 14° S
Cosmos 2219 Rocket 3.3 20:16:56 10° NNW 20:22:06 34° NE 20:26:24 14° ESE
CZ-2C R/B 3.7 20:21:09 17° E 20:22:06 20° ENE 20:24:15 10° NNE
DNEPR-1 R/B 4.4 20:24:27 10° NW 20:29:58 79° NE 20:34:56 19° SE
USA 245 4.3 20:25:40 15° SSE 20:30:34 77° ENE 20:36:04 10° N
IRS-1C Rocket 4.3 20:27:08 18° SE 20:30:57 57° ENE 20:36:08 10° N
Nadezhda 4 Rocket 4.4 20:25:23 10° N 20:31:17 47° ENE 20:35:27 19° SE
Meteor 1-25 Rocket 4.2 20:25:49 10° N 20:31:29 72° ENE 20:35:41 18° SSE
Cosmos 1825 Rocket 4.3 20:30:35 10° N 20:34:37 37° ENE 20:36:52 22° SE
Cosmos 1805 3.2 20:32:04 10° N 20:35:14 46° ENE 20:36:34 28° SE
Cosmos 220 Rocket 3.7 20:32:22 10° SSW 20:36:23 70° ESE 20:40:29 10° NNE
NOSS 3-3 (C) 4.2 20:31:23 10° SW 20:36:38 64° NW 20:42:59 10° NE
Cosmos 2322 Rocket 2.3 20:36:25 10° NNW 20:42:06 73° ENE 20:45:49 22° SE
USA 306 4.1 20:43:52 10° NW 20:45:45 17° NNW 20:47:11 10° NNE
Cosmos 1602 Rocket 3.5 20:41:39 10° N 20:45:59 89° W 20:48:44 22° S
Cosmos 2082 Rocket 3.9 20:41:03 10° WSW 20:46:17 36° NW 20:51:33 10° NNE
NOSS 3-4 (A) 3.8 20:42:52 10° NW 20:49:36 90° N 20:55:06 22° SE
NOSS 3-4 (C) 3.8 20:43:30 10° NW 20:50:15 89° NE 20:55:45 22° SE
Cosmos 1707 4.3 20:52:04 12° ENE 20:52:04 12° ENE 20:52:49 10° ENE
DELTA 2 R/B (1) 4.4 20:46:42 10° WSW 20:51:36 32° S 20:53:40 24° SSE
CZ-4B R/B 2.5 20:49:58 27° S 20:51:39 73° WSW 20:55:08 10° NNW
Cosmos 2151 3.7 20:52:14 10° NNW 20:56:11 47° W 20:59:04 17° SSW
Cosmos 2098 Rocket 3.0 20:53:24 19° S 20:56:44 78° E 21:00:51 10° NNE
Cosmos 1076 Rocket 3.9 20:54:35 10° N 20:58:42 46° ENE 21:00:20 30° SE
Cosmos 44 4.3 20:54:08 10° NNW 20:59:18 44° NE 21:02:45 19° ESE
Ariane Rocket 3.0 20:59:01 24° S 21:02:11 81° WSW 21:07:17 10° NNW
Cosmos 2278 4.2 21:03:37 10° NW 21:09:12 54° WSW 21:12:37 23° S
SPOT 3 Rocket 4.1 21:09:24 19° S 21:12:53 52° W 21:17:54 10° NNW
SL-16 R/B 3.1 21:07:52 10° NW 21:13:07 40° WSW 21:16:43 19° SSW
COSMOS 2428 4.0 21:08:55 10° NNW 21:13:57 31° NE 21:17:37 16° E
Meteor 1-5 Rocket 4.4 21:08:13 10° NNW 21:13:59 76° W 21:17:38 24° S
Cosmos 1763 Rocket 3.5 21:10:53 23° S 21:14:06 64° ESE 21:19:20 10° NNE
USA 186 4.2 21:13:27 10° WSW 21:14:38 12° W 21:15:49 10° WNW
USA 290 2.3 21:18:06 36° SW 21:19:14 70° WNW 21:22:23 10° NNE
Cosmos 1606 Rocket 3.5 21:17:14 26° SSW 21:19:36 80° W 21:23:57 10° N
Cosmos 1464 Rocket 4.0 21:18:41 17° SSW 21:23:33 78° W 21:29:47 10° N
Cosmos 990 Rocket 3.9 21:18:37 10° NNW 21:23:50 83° ENE 21:26:04 35° SSE
Helios 1B rocket 3.5 21:24:22 24° E 21:24:56 25° ENE 21:27:52 10° N
CZ-4B R/B 4.1 21:23:15 23° SSW 21:25:56 46° W 21:30:36 10° NNW
ISS -3.0 21:23:29 10° WNW 21:26:46 50° NNE 21:28:15 27° ENE
Okean 1 3.1 21:25:54 40° SSW 21:27:03 74° W 21:30:39 10° N
Cosmos 1726 Rocket 3.2 21:25:49 38° S 21:27:17 90° SE 21:31:22 10° N
BREEZE-M DEB (TANK) 2.1 21:26:19 10° W 21:28:12 43° NW 21:28:12 43° NW
Okean O Rocket 4.1 21:31:07 10° WSW 21:33:30 14° W 21:35:52 10° NW
Cosmos 1536 3.0 21:32:59 10° N 21:36:34 48° ENE 21:36:59 45° E
Cosmos-2242 2.9 21:37:47 51° SSE 21:38:37 66° E 21:42:43 10° NNE
Cosmos 1092 Rocket 3.9 21:36:21 10° N 21:42:33 77° E 21:45:21 35° SSE
Cosmos 2333 Rocket 3.7 21:38:43 10° NW 21:43:23 27° WSW 21:46:30 17° SSW
KORONAS-FOTON 4.1 21:43:53 43° ENE 21:43:53 43° ENE 21:46:49 10° NNE
Cosmos 2297 Rocket 3.8 21:46:14 18° E 21:46:21 18° E 21:50:01 10° ENE
Cosmos 841 Rocket 4.3 21:47:26 31° ESE 21:48:01 32° E 21:52:37 10° NE
Cosmos 1833 4.3 21:44:13 15° SW 21:48:59 75° WNW 21:54:38 10° NNE
CZ-2C R/B 4.2 21:52:44 17° W 21:52:48 17° W 21:54:46 10° NW
Cosmos 2360 Rocket 3.2 21:48:11 10° NW 21:53:22 37° WSW 21:55:44 26° SSW
Cosmos 1842 3.7 21:56:49 36° NE 21:56:49 36° NE 21:59:07 10° NNE
Cosmos 1766 2.9 21:53:41 10° NNW 21:56:45 67° WNW 21:56:45 67° WNW
Cosmos 2322 3.9 21:52:21 10° NNW 21:58:01 63° ENE 22:00:18 36° SE
Cosmos 1975 3.6 21:55:46 10° N 21:59:09 33° ENE 21:59:14 33° ENE
Meteor 2-6 Rocket 4.4 21:58:28 39° SSE 22:00:34 63° E 22:06:26 10° NNE
Cosmos 2034 Rocket 4.4 21:58:36 22° SSW 22:02:47 61° WNW 22:09:03 10° N
Cosmos 2221 3.2 22:03:18 36° E 22:03:22 36° E 22:07:13 10° NNE
Cosmos 372 Rocket 3.9 21:58:50 10° NNW 22:03:58 82° ENE 22:05:24 48° SSE
Cosmos 1271 Rocket 3.0 22:06:21 46° ENE 22:06:21 46° ENE 22:09:05 10° NNE
Cosmos 2219 Rocket 2.8 22:00:47 10° NW 22:06:11 47° WSW 22:08:05 34° SSW
SL-08 ROCKET BODY 4.4 22:05:09 10° N 22:11:21 77° E 22:13:38 41° SSE
Cosmos 540 Rocket 4.2 22:07:44 18° SW 22:11:26 50° WNW 22:16:27 10° NNE
Helios 1A 3.1 22:13:30 10° N 22:17:22 60° WNW 22:18:07 49° WSW
Cosmos 2279 Rocket 3.9 22:16:40 41° S 22:18:58 76° E 22:25:15 10° NNE
RESURS DK-1 2.1 22:16:34 10° NNW 22:20:33 81° ENE 22:20:45 77° ESE
Aureole 1 Rocket 4.2 22:16:13 10° NNW 22:22:03 60° WSW 22:24:34 38° SSW
Cosmos 1707 3.9 22:23:33 25° WNW 22:23:33 25° WNW 22:25:44 10° NNW
Cosmos 1634 Rocket 4.1 22:22:33 34° SSW 22:25:23 71° W 22:31:37 10° N
Cosmos 2322 Rocket 4.0 22:21:32 10° NW 22:25:30 20° W 22:27:37 16° SW
Meteor 1-19 Rocket 4.4 22:24:37 45° SSE 22:26:13 61° E 22:32:03 10° NNE
Cosmos 1937 Rocket 3.5 22:23:44 10° NNW 22:28:53 74° ENE 22:30:09 51° SE
TSX-5 4.3 22:27:35 10° NW 22:29:55 40° WNW 22:29:55 40° WNW
Cosmos 2058 Rocket 4.0 22:30:59 32° WSW 22:32:18 41° WNW 22:36:25 10° N
Cosmos 468 Rocket 4.4 22:30:13 29° SW 22:32:49 58° WNW 22:38:01 10° NNE
Geosat 4.4 22:28:02 10° NNE 22:32:59 60° NW 22:35:38 27° SW
SL-16 R/B 4.4 22:28:56 10° N 22:33:00 20° NE 22:37:03 10° E
CZ-2C R/B 3.5 22:29:10 10° NNE 22:33:40 80° ESE 22:34:15 66° S
GP-B 3.8 22:31:46 10° NNE 22:35:54 40° E 22:36:11 39° E
BREEZE-M DEB 4.5 22:32:47 10° WSW 22:37:38 73° S 22:52:48 10° E
Meteor 2-9 Rocket 4.1 22:34:35 10° NNW 22:40:00 80° W 22:41:24 52° S
Cosmos 44 4.1 22:35:28 10° NW 22:40:25 39° WSW 22:41:01 37° SW
CZ-2C R/B 3.7 22:39:09 25° ESE 22:41:12 34° ENE 22:45:51 10° N
Lacrosse 4 Rocket 3.1 22:42:43 21° E 22:42:43 21° E 22:44:48 10° NE
Cosmos 2237 Rocket 2.6 22:39:20 10° NNW 22:44:57 57° ENE 22:47:09 35° ESE
SeaSat 1 4.4 22:42:58 10° E 22:46:47 23° NE 22:50:36 10° N
USA 234 3.5 22:42:00 10° ENE 22:48:18 48° SE 22:49:36 42° SSE
Cosmos 2266 Rocket 3.9 22:42:30 10° N 22:48:34 77° E 22:50:27 46° SSE
Cosmos 1980 3.9 22:43:35 10° NNW 22:49:14 66° ENE 22:51:12 40° SE
Cosmos 1470 3.6 22:46:49 10° NNW 22:49:19 35° WNW 22:49:19 35° WNW
ARIANE 5 R/B 2.6 22:52:41 62° SW 22:53:04 66° WSW 22:57:31 10° NNW
Intercosmos 24 4.3 22:49:57 10° N 22:53:29 46° ENE 22:53:29 46° ENE
ALOS 2 2.5 22:54:46 71° SSW 22:55:06 76° WSW 22:59:32 10° NNW
Cosmos 2227 Rocket 3.4 22:55:49 26° ESE 22:56:20 27° ESE 23:00:58 10° NE
Helios 1B rocket 3.8 22:58:18 23° W 22:58:18 23° W 23:00:47 10° NW
COSMOS 2428 2.9 22:52:56 10° NW 22:58:29 54° WSW 22:59:34 47° SSW
Meteor 2-4 Rocket 4.1 23:00:13 40° SE 23:01:16 45° E 23:06:31 10° NNE
BlueWalker 3 4.2 23:05:22 14° ENE 23:05:22 14° ENE 23:06:02 10° ENE
ISS -1.4 23:00:20 10° WNW 23:01:11 16° WNW 23:01:11 16° WNW
Cosmos 1898 Rocket 4.0 22:58:58 10° NW 23:03:51 43° WSW 23:04:33 41° SW
Cosmos 2263 Rocket 3.8 23:03:56 19° ESE 23:04:29 20° E 23:08:22 10° NE
CZ-2C R/B 3.5 23:02:19 10° NNE 23:08:03 61° E 23:09:26 48° SSE
Meteor 1-11 Rocket 3.7 23:03:16 10° NNW 23:08:54 72° W 23:10:10 52° SSW
Cosmos 1766 Rocket 3.7 23:05:33 10° N 23:09:48 58° ENE 23:10:08 56° E
SAR-Lupe-2 4.3 23:10:57 45° NW 23:10:57 45° NW 23:13:28 10° NNW
Meteor 1-10 Rocket 4.4 23:11:29 45° SSW 23:13:20 74° WNW 23:19:18 10° N
Cosmos 1238 Rocket 3.1 23:14:04 60° E 23:14:04 60° E 23:18:18 10° NNE
PSLV R/B 3.6 23:12:29 10° N 23:16:46 67° WNW 23:17:16 61° WSW
Cosmos 1655 Rocket 4.1 23:15:50 10° N 23:22:05 71° E 23:24:15 42° SSE
Cosmos 1814 Rocket 4.4 23:21:59 45° SE 23:22:36 47° ESE 23:27:36 10° NNE
Meteor 1-27 Rocket 3.7 23:25:50 51° SSW 23:27:25 85° WNW 23:33:11 10° N
Alouette 2 Rocket 3.7 23:23:46 10° N 23:27:39 73° ENE 23:28:18 61° SE
Cosmos 2297 Rocket 2.2 23:27:59 47° SW 23:29:40 79° WNW 23:35:22 10° NNE
NOSS 0 Rocket 4.4 23:23:54 10° NW 23:29:42 44° WSW 23:30:48 40° SW
Meteor 2-10 Rocket 3.9 23:24:51 10° N 23:30:23 63° ENE 23:32:13 41° SE
SL-14 R/B 4.2 23:39:49 35° E 23:39:49 35° E 23:43:09 10° NNE
Cosmos 2221 4.2 23:39:35 21° W 23:40:30 22° WNW 23:43:50 10° NNW
Cosmos 158 Rocket 4.0 23:39:40 57° S 23:40:43 76° ESE 23:46:03 10° NNE
CZ-4C R/B 4.2 23:39:07 10° NNE 23:41:47 35° ENE 23:41:47 35° ENE
MetOp-A 4.1 23:42:38 51° WSW 23:43:06 53° W 23:47:42 10° NNW
ACS3 Solar Sail 2.4 23:38:30 10° NNE 23:44:13 44° E 23:46:10 34° SE
Landsat 5 3.3 23:44:25 10° NNE 23:48:28 69° E 23:48:28 69° E
